Location: ??????
(55.2000°N, 38.3000°E)
Time: 17:04:54
(UTC+00:00)

COSMO-SKYMED 1 - Pass Details

Date: 15 November 2025
Orbit: 579 x 581 km, 97.9° (Epoch: 14 December)

Event Time Altitude Azimuth Distance (km) Brightness Sun altitude
Rises 02:20:13 0° 155° (SSE) 2,796 6.3 -22.4°
Reaches altitude 10° 02:22:22 10° 153° (SSE) 1,901 5.4 -22.1°
Maximum altitude 02:26:27 68° 71° (ENE) 634 2.7 -21.5°
Enters shadow 02:30:12 12° 350° (N) 1,762 4.7 -20.9°
